Location: Unspecified
(42.9300°N, 71.1866°W)
Time: 04:31:01
(UTC-04:00)

HST - Visible Passes

Search period start: 24 October 2014 00:00
Search period end: 02 November 2014 23:00
Orbit: 546 x 550 km, 28.5° (Epoch: 23 October)

Date Brightness Start Highest point End Pass type
(mag) Time Alt. Az. Time Alt. Az. Time Alt. Az.
29 Oct 3.4 18:44:17 10° S 18:44:45 10° S 18:45:13 10° SSE visible
30 Oct 3.4 18:36:15 10° S 18:37:16 11° S 18:38:17 10° SSE visible
31 Oct 3.4 18:28:36 10° SSW 18:29:47 11° S 18:30:57 10° SSE visible
01 Nov 3.4 18:21:10 10° SSW 18:22:17 11° S 18:23:25 10° SSE visible
02 Nov 3.5 17:13:58 10° SSW 17:14:47 11° S 17:15:37 10° S visible
